Time,TemperatureF,DewpointF,PressureIn,WindDirection,WindDirectionDegrees,WindSpeedMPH,WindSpeedGustMPH,Humidity,HourlyPrecipIn,Conditions,Clouds,dailyrainin,SoftwareType,DateUTC
2013-09-20 00:14:00,71.0,69.0,29.92,South,174,12.0,14.0,94,0.00,,,1.04,,2013-09-20 04:14:00,
2013-09-20 00:24:00,71.0,69.0,29.91,South,179,10.0,14.0,94,0.00,,,1.04,,2013-09-20 04:24:00,
2013-09-20 00:44:00,71.0,69.0,29.92,South,186,10.0,15.0,95,0.00,,,1.04,,2013-09-20 04:44:00,
2013-09-20 00:54:00,71.0,69.0,29.92,South,184,8.0,15.0,94,0.00,,,1.04,,2013-09-20 04:54:00,
2013-09-20 01:13:00,72.0,70.0,29.93,SSW,198,5.0,16.0,94,0.00,,,1.04,,2013-09-20 05:13:00,
2013-09-20 01:23:00,72.0,70.0,29.93,SSW,206,12.0,21.0,94,0.00,,,1.04,,2013-09-20 05:23:00,
2013-09-20 01:53:00,73.0,71.0,29.93,SSW,202,7.0,15.0,93,0.00,,,1.04,,2013-09-20 05:53:00,
2013-09-20 02:12:00,73.0,71.0,29.93,SSW,202,13.0,18.0,92,0.00,,,1.04,,2013-09-20 06:12:00,
2013-09-20 02:22:00,73.0,71.0,29.93,SSW,201,7.0,13.0,92,0.00,,,1.04,,2013-09-20 06:22:00,
2013-09-20 02:52:00,73.0,71.0,29.91,SSW,203,9.0,16.0,92,0.00,,,0.96,,2013-09-20 06:52:00,
2013-09-20 03:12:00,72.0,70.0,29.91,SSW,198,9.0,16.0,93,0.00,,,0.96,,2013-09-20 07:12:00,
2013-09-20 03:23:00,72.0,70.0,29.90,SSW,205,9.0,14.0,93,0.00,,,0.96,,2013-09-20 07:23:00,
2013-09-20 03:53:00,72.0,70.0,29.90,SSW,206,8.0,15.0,94,0.00,,,0.61,,2013-09-20 07:53:00,
2013-09-20 04:11:00,72.0,70.0,29.90,SSW,200,9.0,16.0,94,0.00,,,0.61,,2013-09-20 08:11:00,
2013-09-20 04:22:00,72.0,70.0,29.89,SSW,194,10.0,15.0,94,0.00,,,0.61,,2013-09-20 08:22:00,
2013-09-20 04:52:00,72.0,70.0,29.89,SSW,207,10.0,17.0,93,0.00,,,0.42,,2013-09-20 08:52:00,
2013-09-20 05:22:00,72.0,70.0,29.88,South,186,10.0,16.0,93,0.00,,,0.42,,2013-09-20 09:22:00,
2013-09-20 05:43:00,72.0,70.0,29.88,SSW,207,8.0,17.0,92,0.00,,,0.42,,2013-09-20 09:43:00,
2013-09-20 05:53:00,72.0,70.0,29.88,SSW,209,8.0,17.0,92,0.00,,,0.42,,2013-09-20 09:53:00,
2013-09-20 06:13:00,72.0,70.0,29.88,SSW,209,9.0,16.0,92,0.00,,,0.42,,2013-09-20 10:13:00,
2013-09-20 06:23:00,72.0,70.0,29.88,SSW,209,9.0,16.0,92,0.00,,,0.42,,2013-09-20 10:23:00,
2013-09-20 06:53:00,71.0,69.0,29.87,SSW,198,12.0,17.0,93,0.00,,,0.42,,2013-09-20 10:53:00,
2013-09-20 07:12:00,71.0,69.0,29.88,SSW,196,9.0,16.0,94,0.00,,,0.42,,2013-09-20 11:12:00,
2013-09-20 07:23:00,71.0,69.0,29.88,South,191,10.0,16.0,94,0.00,,,0.42,,2013-09-20 11:23:00,
2013-09-20 07:52:00,70.0,68.0,29.86,South,180,10.0,17.0,95,0.00,,,0.42,,2013-09-20 11:52:00,
2013-09-20 08:02:00,70.0,68.0,29.86,South,180,10.0,17.0,95,0.00,,,0.42,,2013-09-20 12:02:00,
2013-09-20 08:12:00,70.0,68.0,29.86,South,180,10.0,17.0,95,0.00,,,0.42,,2013-09-20 12:12:00,
2013-09-20 08:22:00,70.0,68.0,29.87,South,188,10.0,18.0,95,0.00,,,0.42,,2013-09-20 12:22:00,
2013-09-20 08:52:00,71.0,69.0,29.86,SSW,211,12.0,17.0,93,0.00,,,0.42,,2013-09-20 12:52:00,
2013-09-20 09:12:00,72.0,70.0,29.87,SW,217,11.0,16.0,92,0.00,,,0.42,,2013-09-20 13:12:00,
2013-09-20 09:22:00,73.0,70.0,29.87,SSW,193,11.0,15.0,90,0.00,,,0.42,,2013-09-20 13:22:00,
2013-09-20 09:42:00,74.0,70.0,29.88,SSW,213,11.0,17.0,88,0.00,,,0.42,,2013-09-20 13:42:00,
2013-09-20 09:53:00,74.0,70.0,29.88,SSW,206,11.0,18.0,87,0.00,,,0.42,,2013-09-20 13:53:00,
2013-09-20 10:21:00,75.0,71.0,29.88,SSW,201,8.0,18.0,86,0.00,,,0.42,,2013-09-20 14:21:00,
2013-09-20 10:52:00,74.0,70.0,29.88,SW,224,10.0,16.0,86,0.00,,,0.42,,2013-09-20 14:52:00,
2013-09-20 11:12:00,75.0,70.0,29.88,SSW,210,12.0,16.0,85,0.00,,,0.42,,2013-09-20 15:12:00,
2013-09-20 11:22:00,76.0,70.0,29.87,SW,234,7.0,19.0,83,0.00,,,0.42,,2013-09-20 15:22:00,
2013-09-20 11:54:00,77.0,70.0,29.86,SW,221,13.0,17.0,79,0.00,,,0.39,,2013-09-20 15:54:00,
2013-09-20 12:23:00,77.0,70.0,29.86,SW,221,11.0,16.0,78,0.00,,,0.39,,2013-09-20 16:23:00,
2013-09-20 12:53:00,78.0,69.0,29.85,SW,233,13.0,18.0,75,0.00,,,0.38,,2013-09-20 16:53:00,
2013-09-20 13:13:00,78.0,69.0,29.85,WSW,245,12.0,20.0,74,0.00,,,0.38,,2013-09-20 17:13:00,
2013-09-20 13:24:00,77.0,70.0,29.85,West,261,7.0,17.0,78,0.00,,,0.38,,2013-09-20 17:24:00,
2013-09-20 13:53:00,75.0,69.0,29.85,West,259,4.0,12.0,82,0.00,,,0.02,,2013-09-20 17:53:00,
2013-09-20 14:12:00,74.0,68.0,29.84,West,261,8.0,12.0,83,0.00,,,0.02,,2013-09-20 18:12:00,
2013-09-20 14:22:00,73.0,69.0,29.84,WSW,258,8.0,20.0,86,0.07,,,0.09,,2013-09-20 18:22:00,
2013-09-20 14:52:00,71.0,69.0,29.83,SW,225,6.0,9.0,93,0.08,,,0.08,,2013-09-20 18:52:00,
2013-09-20 15:12:00,71.0,69.0,29.83,SW,214,3.0,10.0,93,0.08,,,0.08,,2013-09-20 19:12:00,
2013-09-20 15:22:00,71.0,69.0,29.81,SSW,213,6.0,10.0,94,0.01,,,0.08,,2013-09-20 19:22:00,
2013-09-20 15:53:00,71.0,69.0,29.82,SSW,195,8.0,10.0,94,0.00,,,0.08,,2013-09-20 19:53:00,
2013-09-20 16:22:00,73.0,70.0,29.80,SSW,205,7.0,11.0,91,0.00,,,0.08,,2013-09-20 20:22:00,
2013-09-20 16:42:00,73.0,70.0,29.80,SSW,208,5.0,7.0,90,0.00,,,0.08,,2013-09-20 20:42:00,
2013-09-20 16:52:00,73.0,70.0,29.80,SSW,202,6.0,10.0,89,0.00,,,0.08,,2013-09-20 20:52:00,
2013-09-20 17:22:00,73.0,70.0,29.80,SW,223,5.0,10.0,89,0.00,,,0.08,,2013-09-20 21:22:00,
2013-09-20 17:55:00,74.0,71.0,29.80,SW,221,7.0,10.0,89,0.00,,,0.08,,2013-09-20 21:55:00,
2013-09-20 18:14:00,74.0,71.0,29.79,SW,227,5.0,10.0,89,0.00,,,0.08,,2013-09-20 22:14:00,
2013-09-20 18:24:00,73.0,68.0,29.79,West,273,8.0,12.0,85,0.00,,,0.08,,2013-09-20 22:24:00,
2013-09-20 18:53:00,72.0,67.0,29.79,West,264,7.0,11.0,85,0.00,,,0.08,,2013-09-20 22:53:00,
2013-09-20 19:02:00,72.0,67.0,29.79,West,264,7.0,11.0,85,0.00,,,0.08,,2013-09-20 23:02:00,
2013-09-20 19:13:00,72.0,67.0,29.79,West,264,7.0,11.0,85,0.00,,,0.08,,2013-09-20 23:13:00,
2013-09-20 19:22:00,71.0,67.0,29.79,West,260,4.0,7.0,88,0.00,,,0.08,,2013-09-20 23:22:00,
2013-09-20 19:53:00,70.0,67.0,29.79,West,259,4.0,6.0,90,0.00,,,0.08,,2013-09-20 23:53:00,
2013-09-20 20:11:00,70.0,67.0,29.79,West,259,4.0,7.0,91,0.01,,,0.09,,2013-09-21 00:11:00,
2013-09-20 20:22:00,69.0,67.0,29.79,West,259,3.0,5.0,93,0.01,,,0.09,,2013-09-21 00:22:00,
2013-09-20 20:42:00,69.0,67.0,29.79,West,259,4.0,5.0,93,0.02,,,0.10,,2013-09-21 00:42:00,
2013-09-20 20:52:00,69.0,67.0,29.79,WSW,257,4.0,10.0,94,0.03,,,0.11,,2013-09-21 00:52:00,
2013-09-20 21:12:00,68.0,66.0,29.79,WSW,257,5.0,7.0,94,0.02,,,0.11,,2013-09-21 01:12:00,
2013-09-20 21:22:00,68.0,67.0,29.79,WSW,255,6.0,7.0,95,0.03,,,0.12,,2013-09-21 01:22:00,
2013-09-20 21:52:00,68.0,67.0,29.80,WSW,244,8.0,12.0,95,0.02,,,0.13,,2013-09-21 01:52:00,
2013-09-20 22:12:00,67.0,66.0,29.80,West,259,8.0,12.0,95,0.03,,,0.14,,2013-09-21 02:12:00,
2013-09-20 22:22:00,67.0,66.0,29.80,West,259,8.0,10.0,95,0.02,,,0.14,,2013-09-21 02:22:00,
2013-09-20 22:42:00,66.0,65.0,29.79,WSW,257,4.0,7.0,95,0.04,,,0.16,,2013-09-21 02:42:00,
2013-09-20 22:52:00,66.0,65.0,29.80,WSW,257,4.0,7.0,95,0.04,,,0.17,,2013-09-21 02:52:00,
2013-09-20 23:22:00,66.0,65.0,29.79,WSW,254,8.0,10.0,96,0.04,,,0.18,,2013-09-21 03:22:00,
2013-09-20 23:55:00,67.0,66.0,29.79,WSW,254,6.0,11.0,97,0.02,,,0.19,,2013-09-21 03:55:00,